Location: Düngen
(52.0952°N, 10.0219°E)
Time: 18:46:59
(UTC+00:00)

USA 234 - Pass Details

Date: 11 March 2026
Orbit: 1102 x 1106 km, 123.0° (Epoch: 4 January)

Event Time Altitude Azimuth Distance (km) Brightness Sun altitude
Exits shadow 21:03:33 52° 235° (SW) 1,348 3.6 -32.7°
Drops below altitude 10° 21:09:27 10° 296° (WNW) 2,971 6.3 -33.3°
Sets 21:12:02 0° 301° (WNW) 3,932 7.1 -33.6°
